Location: ????????
(55.7836°N, 37.4714°E)
Time: 11:05:45
(UTC+00:00)

Daily predictions for brighter satellites

Satellite Brightness Start Highest point End
(mag) Time Altitude Azimuth Time Altitude Azimuth Time Altitude Azimuth
COSMOS 2406 3.7 18:12:54 10° S 18:18:14 41° ESE 18:23:35 10° NE
SKYMED 3 4.4 18:15:54 10° NNE 18:19:52 86° WNW 18:23:51 10° SSW
Cosmos 724 4.4 18:14:24 10° SW 18:20:25 85° SE 18:26:20 10° NE
Meteor 1-20 Rocket 4.3 18:15:24 10° NNW 18:21:00 77° ENE 18:26:41 10° SSE
Ariane Rocket 3.3 18:18:47 10° SE 18:23:44 59° ENE 18:28:44 10° N
EP 1 4.3 18:21:12 10° NW 18:23:49 66° SW 18:26:27 10° SE
Okean-O 2.9 18:19:32 10° S 18:23:54 68° WSW 18:28:17 10° NNW
DNEPR-1 R/B 4.3 18:19:18 10° NW 18:24:32 82° SW 18:30:57 10° SE
SPOT 3 Rocket 3.6 18:21:36 10° SSE 18:26:44 75° ENE 18:31:53 10° NNW
CZ-2C R/B 3.0 18:24:19 10° SE 18:26:50 31° ENE 18:29:22 10° N
CZ-4 R/B 3.8 18:24:28 10° SW 18:26:59 18° W 18:29:31 10° NW
Cosmos 1725 Rocket 4.4 18:20:55 10° SSW 18:27:10 71° WNW 18:33:24 10° N
Cosmos 1782 3.1 18:24:17 10° SSW 18:27:46 59° WNW 18:31:17 10° N
Cosmos 2333 Rocket 2.3 18:22:19 10° NW 18:28:03 81° WSW 18:33:46 10° SSE
Cosmos 1758 Rocket 3.6 18:23:38 10° NNW 18:28:03 88° WSW 18:32:30 10° S
Spot 2 Rocket 4.0 18:24:16 10° S 18:29:14 60° WSW 18:34:15 10° NNW
Tsikada Rocket 4.5 18:25:41 10° NNW 18:31:47 63° W 18:37:50 10° S
Cosmos 1933 3.7 18:28:25 10° SSE 18:32:00 41° E 18:35:36 10° NNE
Cosmos 1825 Rocket 4.1 18:37:03 10° N 18:41:14 44° ENE 18:45:21 10° SE
Cosmos 2360 Rocket 2.3 18:36:32 10° NW 18:42:16 83° NE 18:47:55 10° SE
Cosmos 44 4.0 18:39:09 10° NW 18:44:32 60° NE 18:49:49 10° ESE
CZ-4C R/B 2.6 18:41:58 10° WSW 18:46:37 64° NNW 18:52:46 10° NE
Cosmos 2333 4.3 18:43:53 10° NW 18:49:38 81° NE 18:55:12 11° SE
USA 245 4.5 18:44:18 10° S 18:50:11 74° WSW 18:55:39 10° NNW
Helios 1B rocket 4.1 18:48:00 10° E 18:50:25 18° ENE 18:52:50 10° NNE
CZ-4B R/B 3.4 18:46:06 10° SSE 18:50:53 86° WSW 18:55:48 10° NNW
Okean 1 4.4 18:48:21 11° SE 18:51:00 24° E 18:53:56 10° NE
Cosmos 1602 Rocket 3.6 18:47:57 10° NNW 18:52:17 86° W 18:56:38 10° S
Cosmos 1992 Rocket 4.0 18:47:34 10° SSW 18:52:47 88° ESE 18:58:01 10° NNE
Cosmos 1461 2.9 18:51:00 10° SSW 18:54:30 41° SE 18:57:58 10° ENE
YAOGAN 11 4.3 18:50:31 10° NNE 18:54:57 79° WNW 18:59:25 10° SSW
Meteor 1-25 Rocket 4.3 18:49:50 10° NNW 18:55:33 81° WSW 19:01:09 10° S
Cosmos 2219 Rocket 2.4 18:50:04 10° NNW 18:55:45 72° NE 19:01:07 12° SE
Cosmos 1777 Rocket 4.0 18:50:48 10° NNW 18:56:04 85° WSW 19:01:01 12° SSE
Cosmos 1707 4.4 18:57:21 10° E 18:57:59 10° E 18:58:36 10° ENE
SL-08 R/B 4.3 18:58:55 10° N 19:03:37 51° WNW 19:08:14 10° SW
NOSS 3-3 (A) 3.8 18:58:14 10° SW 19:03:38 82° SE 19:10:16 10° NE
Cosmos 909 Rocket 4.1 18:58:02 10° SW 19:04:19 83° SE 19:11:04 10° NE
Cosmos 1503 Rocket 4.0 18:59:16 10° NNW 19:04:30 89° ENE 19:09:08 13° SSE
ISS -3.3 19:02:06 10° WSW 19:05:16 40° S 19:08:26 10° ESE
Cosmos 220 Rocket 4.0 19:01:36 10° S 19:05:33 52° ESE 19:09:35 10° NE
Cosmos 1437 Rocket 2.6 19:04:09 10° SSW 19:07:42 83° W 19:11:21 10° NNE
Helios 1A 4.4 19:05:55 10° NE 19:08:54 20° E 19:11:05 14° SE
USA 290 3.3 19:07:21 15° SSE 19:09:13 25° ESE 19:11:53 10° NE
Cosmos 1076 Rocket 3.7 19:07:09 10° N 19:11:24 61° ENE 19:14:52 15° SSE
Cosmos 2098 Rocket 3.1 19:08:08 10° S 19:12:48 66° E 19:16:48 10° NNE
Cosmos 2322 Rocket 2.5 19:08:21 10° NW 19:13:57 63° WSW 19:18:59 13° SSE
Cosmos 1513 Rocket 4.5 19:08:25 10° S 19:14:38 87° E 19:20:47 10° NNE
Terra 4.3 19:12:05 10° SW 19:14:58 16° W 19:17:54 10° NW
Cosmos 1486 Rocket 4.4 19:10:23 10° NNW 19:15:33 58° WSW 19:20:20 12° S
Cosmos 1464 Rocket 4.0 19:09:38 10° S 19:15:42 67° E 19:21:52 10° NNE
Cosmos 1607 4.4 19:10:09 10° WSW 19:16:20 69° NW 19:22:40 10° NE
Cosmos 2151 4.2 19:13:40 10° NNW 19:17:29 37° W 19:21:15 10° SSW
RESURS DK-1 3.5 19:14:40 10° NNW 19:18:23 36° NE 19:22:05 10° ESE
Cosmos 1354 Rocket 4.0 19:13:28 10° NNW 19:18:46 84° ENE 19:23:09 15° SSE
ARIANE 5 R/B 4.2 19:17:41 10° ESE 19:21:21 26° ENE 19:25:02 10° N
Cosmos 2082 Rocket 3.1 19:15:53 10° SW 19:21:30 54° NW 19:27:07 10° NNE
Meteor 2-10 4.4 19:17:15 10° NNW 19:22:59 76° W 19:28:15 12° S
ALOS 2 4.4 19:19:34 10° ESE 19:23:00 23° ENE 19:26:26 10° N
Cosmos 372 Rocket 4.5 19:18:51 10° NNW 19:23:52 51° NE 19:28:14 13° SE
Cosmos 1606 Rocket 3.5 19:26:21 12° S 19:30:22 73° E 19:34:41 10° NNE
Cosmos 1092 Rocket 4.2 19:24:38 10° N 19:30:47 64° ENE 19:35:51 16° SSE
Cosmos 2237 Rocket 3.6 19:26:55 10° NNW 19:32:05 34° NE 19:37:13 10° E
NOSS 3-3 (C) 4.0 19:30:01 10° SW 19:35:32 84° NW 19:42:22 10° NE
Aureole 1 Rocket 3.9 19:31:36 10° NNW 19:37:05 80° ENE 19:42:31 16° SSE
Cosmos 540 Rocket 3.9 19:33:38 14° S 19:37:48 44° ESE 19:42:41 10° NE
Cosmos 1766 2.9 19:35:12 10° N 19:38:24 59° ENE 19:40:18 22° SSE
CZ-4B R/B 4.5 19:35:42 10° SSW 19:38:27 22° W 19:41:16 10° NW
Cosmos 1726 Rocket 3.4 19:35:41 16° S 19:38:52 65° E 19:42:55 10° NNE
Okean O Rocket 4.1 19:37:15 10° SW 19:39:54 16° W 19:42:34 10° NW
Cosmos 1271 Rocket 4.4 19:39:32 14° ESE 19:40:45 16° E 19:42:53 10° NE
USA 306 1.1 19:39:00 10° W 19:41:08 42° SSW 19:41:08 42° SSW
NOSS 0 Rocket 4.5 19:35:32 10° NW 19:41:38 56° NE 19:47:32 11° ESE
COSMOS 2428 3.1 19:37:38 10° NNW 19:43:19 61° NE 19:48:16 14° SE
SL-16 R/B 3.8 19:39:22 10° NW 19:43:58 26° WSW 19:48:33 10° SSW
Cosmos 1937 Rocket 4.2 19:40:00 10° NNW 19:44:57 45° NE 19:49:21 13° ESE
NOSS 3-4 (A) 4.5 19:39:10 10° WNW 19:45:21 42° SW 19:51:13 15° S
NOSS 3-4 (C) 4.5 19:39:48 10° WNW 19:46:00 42° SW 19:51:52 15° S
Geosat 4.4 19:46:38 10° NE 19:51:25 43° ESE 19:55:05 16° S
Cosmos 2034 Rocket 4.0 19:48:12 12° S 19:54:05 82° E 20:00:27 10° NNE
CZ-2C R/B 4.3 19:55:43 10° SW 19:57:40 17° W 19:59:39 10° NW
ATLAS 2AS CENTAUR R/B 3.9 19:51:31 10° WNW 19:58:02 44° N 20:04:30 10° ENE
Cosmos-2242 3.0 19:57:49 20° S 20:00:30 63° E 20:04:36 10° NNE
COSMOS 2406 4.0 19:56:48 10° SW 20:02:26 54° NW 20:08:05 10° NNE
TSX-5 3.2 20:06:50 10° NW 20:09:55 66° SW 20:11:27 28° SSE
Cosmos 2333 Rocket 4.1 20:07:38 10° WNW 20:11:31 19° W 20:15:25 10° SW
BREEZE-M R/B 4.4 20:04:11 10° W 20:12:05 54° SSW 20:17:38 10° ESE
Meteor 1-14 Rocket 4.3 20:07:21 10° NNW 20:12:55 68° ENE 20:16:48 20° SSE
Cosmos 2279 Rocket 4.4 20:08:45 19° SSE 20:13:06 51° E 20:19:09 10° NNE
SeaSat 1 4.1 20:11:23 10° E 20:15:38 30° NE 20:19:54 10° NNW
Cosmos 1634 Rocket 4.0 20:13:07 18° S 20:17:49 73° E 20:24:02 10° NNE
Cosmos 1898 Rocket 3.5 20:13:08 10° NNW 20:18:22 89° ENE 20:21:54 21° SSE
Cosmos 1763 Rocket 3.5 20:13:23 10° SSW 20:18:41 89° WNW 20:23:59 10° NNE
Cosmos 1833 4.1 20:16:26 10° SSW 20:22:07 83° ESE 20:27:46 10° NE
Cosmos 2297 Rocket 3.8 20:19:59 15° SE 20:22:22 19° E 20:26:15 10° ENE
Cosmos 1536 2.9 20:19:01 10° NNW 20:22:39 57° W 20:24:41 24° SSW
Helios 1B rocket 2.3 20:21:14 26° S 20:23:03 60° WSW 20:26:32 10° NNW
Cosmos 1470 2.3 20:20:13 10° N 20:23:32 77° ENE 20:25:01 30° SSE
CZ-2C R/B 4.1 20:19:27 10° NNE 20:23:46 47° E 20:26:13 24° SSE
Cosmos 2221 3.2 20:22:50 23° SE 20:24:52 38° E 20:28:46 10° NNE
Okean 1 4.4 20:22:19 11° SW 20:25:34 36° WNW 20:28:56 10° N
Cosmos 44 4.1 20:20:31 10° NW 20:25:37 43° WSW 20:28:40 22° S
Cosmos 2360 Rocket 3.8 20:21:13 10° NW 20:25:40 24° WSW 20:29:39 12° SSW
Cosmos 2322 3.8 20:22:23 10° NW 20:28:05 72° WSW 20:31:53 22° SSE
CSL-04 DEB 4.3 20:27:17 26° S 20:29:07 60° WSW 20:32:44 10° NNW
Cosmos 1707 2.4 20:28:22 25° SW 20:29:45 56° WNW 20:32:33 10° N
Meteor 2-6 Rocket 4.4 20:26:06 20° S 20:30:18 68° E 20:36:12 10° NNE
Cosmos 1461 3.9 20:27:15 10° WSW 20:30:47 41° NNW 20:34:17 10° NE
CZ-4C R/B 3.7 20:30:44 10° WNW 20:35:46 41° N 20:42:17 10° ENE
Cosmos 2266 Rocket 4.1 20:32:01 10° N 20:38:02 65° ENE 20:42:17 20° SSE
Cosmos 2219 Rocket 3.5 20:34:29 10° NW 20:39:16 29° WSW 20:42:48 16° SSW
GP-B 3.9 20:35:11 10° NNE 20:39:19 39° E 20:41:42 21° SE
Cosmos 2058 Rocket 3.2 20:37:19 19° SSW 20:40:22 67° WNW 20:44:43 10° N
ISS -2.6 20:38:45 10° W 20:41:23 26° SSW 20:41:23 26° SSW
USA 290 3.9 20:40:23 10° WSW 20:43:14 31° NW 20:46:07 10° NNE
Helios 1A 3.4 20:40:02 10° N 20:43:53 55° WNW 20:46:48 16° SW
SAR-Lupe-2 3.3 20:46:49 32° SSE 20:48:14 80° ENE 20:51:35 10° NNW
Cosmos 1975 2.6 20:45:48 10° NNW 20:49:28 73° W 20:51:09 30° S
Cosmos 841 Rocket 3.8 20:48:19 24° S 20:51:17 52° ESE 20:56:23 10° NE
Meteor 1-19 Rocket 4.5 20:49:52 23° S 20:53:35 64° E 20:59:29 10° NNE
KORONAS-FOTON 4.0 20:51:50 23° SW 20:53:42 52° WNW 20:57:03 10° N
RESURS DK-1 2.9 20:52:02 10° NW 20:55:48 40° WSW 20:57:22 27° SSW
Cosmos 2322 Rocket 4.4 20:54:09 10° WNW 20:56:54 14° W 20:59:39 10° SW
ARIANE 5 R/B 2.9 20:54:55 25° S 20:57:21 59° WSW 21:01:48 10° NNW
ALOS 2 2.7 20:56:35 26° S 20:58:58 67° WSW 21:03:22 10° NNW
SL-16 R/B 3.3 20:59:04 10° NNW 21:04:29 42° NE 21:09:53 10° ESE
Cosmos 1655 Rocket 4.4 20:59:41 10° N 21:05:50 56° ENE 21:10:33 17° SE
Cosmos 2084 4.2 21:06:25 10° NW 21:10:28 50° NNE 21:14:30 10° ESE
Cosmos 1271 Rocket 3.0 21:12:52 24° SW 21:14:36 51° WNW 21:17:55 10° N
Spot 4 4.5 21:13:00 23° SSW 21:15:40 44° W 21:20:16 10° NNW
Cosmos 1766 Rocket 3.7 21:11:36 10° N 21:15:53 65° ENE 21:18:20 24° SSE
PSLV R/B 3.5 21:11:55 10° NNE 21:16:12 80° ESE 21:18:34 27° S
Cosmos 1842 3.9 21:15:02 21° SW 21:16:38 36° WNW 21:19:37 10° N
Cosmos 2237 Rocket 2.2 21:10:59 10° NW 21:16:41 77° WSW 21:20:30 21° SSE
Lacrosse 4 Rocket 2.9 21:16:34 19° SE 21:17:30 20° ESE 21:20:32 10° ENE
Cosmos 1980 3.7 21:15:10 10° NW 21:20:48 69° WSW 21:24:26 23° SSE
CZ-2C R/B 2.6 21:17:31 22° SSE 21:21:01 80° ENE 21:26:14 10° NNW
ARGOS Delta rocket 4.1 21:18:28 10° N 21:23:35 77° WNW 21:27:06 22° SSW
Cosmos 1937 Rocket 4.2 21:22:01 10° NW 21:26:48 40° WSW 21:29:23 23° SSW
COSMOS 2428 3.6 21:22:13 10° NW 21:27:19 35° WSW 21:30:13 21° SSW
NOSS 0 Rocket 4.4 21:22:12 10° NW 21:28:01 44° WSW 21:31:29 23° S
Meteor 1-11 Rocket 4.0 21:24:21 10° NNW 21:29:56 57° W 21:33:18 23° SSW
Cosmos 2227 Rocket 3.5 21:29:18 18° SSE 21:32:13 27° ESE 21:36:53 10° NE
Meteor 2-4 Rocket 4.0 21:29:47 23° SSE 21:33:04 53° E 21:38:28 10° NNE
Meteor 1-10 Rocket 4.4 21:34:57 22° SSW 21:38:59 80° WNW 21:44:59 10° NNE
Cosmos 2263 Rocket 3.8 21:39:15 14° SE 21:42:19 21° ESE 21:46:24 10° NE
USA 234 3.5 21:36:04 10° ENE 21:42:23 48° SE 21:47:11 18° SSW
MetOp-A 4.2 21:40:33 25° SSW 21:43:11 53° W 21:47:44 10° NNW
ACS3 Solar Sail 2.5 21:44:01 10° NNE 21:49:39 41° E 21:53:51 17° SSE
ATLAS 2AS CENTAUR R/B 3.2 21:43:15 10° NW 21:50:00 61° NNE 21:56:43 10° ESE
CZ-2C R/B 3.3 21:45:09 10° NNE 21:50:56 90° ESE 21:54:49 22° SSW
Cosmos 1812 Rocket 4.2 21:48:19 21° SW 21:51:03 49° WNW 21:55:23 10° N
SeaSat 1 2.4 21:49:02 18° SSE 21:52:40 80° WSW 21:57:36 10° NW
Cosmos 1238 Rocket 2.9 21:50:42 29° S 21:52:43 85° ESE 21:57:12 10° NNE
Meteor 1-27 Rocket 3.8 21:50:12 23° SSW 21:54:01 88° W 21:59:47 10° NNE
Meteor 2-20 Rocket 4.3 21:53:25 23° S 21:57:08 87° E 22:02:54 10° NNE
Cosmos 1758 3.6 21:55:15 10° N 21:58:48 52° ENE 22:01:00 21° SE
Alouette 2 Rocket 3.7 21:57:20 10° NNW 22:00:57 56° WSW 22:03:14 26° S
Cosmos 2221 3.8 21:59:07 15° WSW 22:01:58 31° WNW 22:05:45 10° N
Cosmos 1125 Rocket 3.7 22:00:13 10° NNW 22:05:32 72° ENE 22:10:39 11° SE
Cosmos 2297 Rocket 2.2 22:01:44 21° SSW 22:05:36 83° ESE 22:11:18 10° NE
BlueWalker 3 3.1 22:07:41 22° SE 22:07:41 22° SE 22:10:25 10° E
Okean 3 Rocket 3.6 22:04:38 10° N 22:09:11 84° ENE 22:12:07 22° SSE
Meteor 2-10 Rocket 3.7 22:06:48 10° NNW 22:12:16 69° W 22:16:03 21° S
Landsat 5 3.3 22:09:35 10° NNE 22:13:43 83° ESE 22:15:53 27° SSW
Cosmos 1340 Rocket 3.3 22:12:04 10° N 22:15:50 54° ENE 22:18:41 16° SE
GP-B 4.3 22:12:23 10° NNW 22:16:16 31° WNW 22:18:52 17° SW
Cosmos 1842 Rocket 3.5 22:16:33 25° S 22:19:04 86° ESE 22:23:32 10° NNE
Sich 1 2.9 22:15:50 10° NNW 22:20:00 74° W 22:22:24 24° S
Cosmos 1553 Rocket 4.3 22:16:07 19° S 22:20:50 65° E 22:27:12 10° NNE
SL-14 R/B 3.4 22:21:32 25° S 22:23:35 61° E 22:27:21 10° NNE
Cosmos 1814 Rocket 4.1 22:20:30 23° SSW 22:23:47 69° ESE 22:29:01 10° NNE
CZ-4C R/B 3.5 22:19:14 10° NW 22:25:05 55° NNE 22:32:40 10° E
Cosmos 1805 Rocket 3.6 22:20:46 10° N 22:25:08 76° ENE 22:28:13 19° SSE
BREEZE-M DEB (TANK) 4.1 22:17:05 10° SW 22:28:14 37° S 22:32:18 10° E
DELTA 2 DEB (DPAF) 3.6 22:24:56 10° NNE 22:28:31 71° ESE 22:30:21 27° S
Cosmos 1743 Rocket 4.1 22:25:47 10° N 22:30:03 55° ENE 22:33:48 13° SSE
Cosmos 1066 Rocket 4.1 22:27:10 21° SSW 22:30:51 83° WNW 22:36:26 10° NNE
SWARM A 4.4 22:31:23 10° N 22:34:35 57° W 22:35:59 29° SSW
Cosmos 1953 3.7 22:32:34 10° N 22:35:55 32° ENE 22:39:13 10° SE
CENTAUR R/B 4.4 22:33:56 10° SE 22:36:43 14° ESE 22:39:46 10° ENE
IDEFIX/ARIANE 42P 3.8 22:33:11 10° NNE 22:37:55 33° E 22:42:24 11° SSE
CZ-4C R/B 3.0 22:36:48 10° NNE 22:40:09 70° WNW 22:41:59 25° SSW
Cosmos 1745 Rocket 4.0 22:41:21 10° N 22:47:31 83° ENE 22:53:22 12° SSE
Meteor 1-18 Rocket 4.2 22:44:04 20° SSW 22:48:06 80° WNW 22:53:50 10° NNE
SL-16 R/B 2.3 22:43:15 10° NW 22:48:49 56° WSW 22:53:44 13° S
Cosmos 158 Rocket 4.1 22:44:55 19° SW 22:48:52 76° WNW 22:54:13 10° NNE
Cosmos 1408 Rocket 3.5 22:44:43 10° NNW 22:48:59 66° W 22:51:52 20° S
Cosmos 2084 3.6 22:45:06 10° WNW 22:49:04 46° SW 22:52:44 12° SSE
Lacrosse 4 Rocket 1.4 22:51:57 18° SW 22:54:50 72° NW 22:58:57 10° NE
Cosmos 2219 4.1 22:51:04 15° S 22:55:17 39° ESE 23:00:28 10° NE
SL-19 R/B 3.7 22:53:53 22° S 22:55:42 69° WSW 22:58:57 10° NNW
Cosmos 2237 Rocket 3.8 22:56:12 10° WNW 22:59:51 18° W 23:02:17 14° SW
CZ-2C R/B 4.1 22:58:57 14° SW 23:01:52 21° W 23:05:47 10° NW
BREEZE-M DEB (TANK) 2.9 22:59:41 10° W 23:05:56 54° S 23:08:24 10° ESE
Iridium 4 Rocket 4.5 23:04:44 16° SW 23:08:57 42° WNW 23:14:28 10° N
In-Cosmos 22 4.3 23:05:14 17° SSW 23:09:30 71° WNW 23:15:12 10° NNE
PSLV R/B 3.8 23:07:00 10° NNE 23:10:54 78° WNW 23:13:37 19° SSW
Cosmos 1703 3.3 23:10:39 17° S 23:12:55 52° E 23:16:03 10° NNE
ADEOS Rocket 4.0 23:07:50 10° NNE 23:15:29 56° E 23:22:37 10° S
Cosmos 2227 Rocket 2.3 23:11:04 15° SW 23:15:46 76° NW 23:21:29 10° NNE
Meteor 1-22 Rocket 4.2 23:10:22 10° NNW 23:16:15 81° WSW 23:21:51 10° S
USA 281 3.6 23:11:16 10° SE 23:17:46 68° NE 23:24:19 10° NNW
Cosmos 1900 4.3 23:12:52 10° NW 23:17:47 87° SW 23:22:39 10° SE
Cosmos 1867 3.5 23:13:35 10° NW 23:19:06 84° SW 23:24:34 10° SE
BREEZE-M DEB (TANK) 4.0 23:23:10 18° SSW 23:23:54 19° S 23:27:49 10° SE
Cosmos 2263 Rocket 2.2 23:20:54 16° SSW 23:25:31 90° ESE 23:31:09 10° NE
USA 234 3.3 23:19:15 10° ENE 23:25:50 87° SSE 23:32:25 10° WSW
USA 81 4.3 23:21:58 10° N 23:27:16 71° E 23:32:31 10° SSE
Cosmos 1151 Rocket 3.4 23:25:13 16° SSW 23:28:26 53° WNW 23:32:41 10° N
SeaSat 1 4.0 23:28:37 14° SW 23:30:45 18° WSW 23:34:01 10° WNW
Cosmos 1633 Rocket 3.0 23:26:57 10° NNW 23:31:17 86° ENE 23:35:37 10° SSE
ACS3 Solar Sail 2.3 23:26:24 10° N 23:32:08 49° WNW 23:37:20 13° SW
MOZ.5/SAFIR/RUBIN 5/SL-8 4.0 23:27:36 10° SSE 23:32:10 72° ENE 23:36:45 10° NNW
Cosmos 1470 Rocket 4.0 23:28:31 10° N 23:32:52 64° ENE 23:37:12 10° SSE
ADEOS II 4.3 23:29:18 10° NE 23:33:12 21° E 23:37:04 10° SE
Cosmos 1943 3.2 23:27:50 10° NW 23:33:24 62° WSW 23:38:55 10° SSE
ATLAS 2AS CENTAUR R/B 2.7 23:34:21 10° NW 23:40:59 58° SW 23:47:36 10° SSE
BlueWalker 3 1.9 23:41:17 11° WSW 23:44:30 50° S 23:47:58 10° E
Cosmos 2298 Rocket 4.1 23:39:15 10° NNW 23:44:32 65° WSW 23:49:46 10° SSE
Cosmos 2285 Rocket 4.0 23:38:14 10° NNW 23:44:34 85° WSW 23:50:54 10° SSE
Meteor 1-15 Rocket 4.4 23:39:21 10° NNW 23:45:17 71° W 23:51:09 10° S
Resurs 1-4 Rocket 3.5 23:40:35 10° NNE 23:45:24 34° E 23:50:09 10° SSE
S3M 4.0 23:40:11 12° SSW 23:45:59 74° WNW 23:52:08 10° N
MSX 3.9 23:40:37 10° NNE 23:46:26 87° WNW 23:52:04 11° SSW
Cosmos 1570 Rocket 4.1 23:42:50 13° SSW 23:47:39 82° ESE 23:53:00 10° NNE
Cosmos 1833 Rocket 4.3 23:44:29 10° NNW 23:49:46 39° NE 23:55:02 10° ESE
NOSS 2-2 (C) 3.7 23:47:29 13° SSW 23:49:54 33° SE 23:52:37 10° ENE
Cosmos 2297 Rocket 3.6 23:45:13 10° W 23:50:15 32° NW 23:55:18 10° NNE
Cosmos 1340 Rocket 4.4 23:48:16 10° NW 23:51:01 19° W 23:53:20 12° SW
Meteor 1-16 Rocket 4.1 23:46:14 10° NNW 23:51:36 88° WSW 23:56:55 10° SSE
EXPRESS MD2 3.5 23:51:48 17° SSW 23:52:36 20° S 23:54:32 10° SE
